This is the latest recevied weather packets stored in our database for station/object DG9BJA-13. If no packets are shown the sender has not sent any weather packets the latest 10 day(s).
| Time | Temp. | Humidity | Pressure | Rain* | Wind** | Luminosity | Snow |
|---|---|---|---|---|---|---|---|
| 1777550776 | 17.22° C | 34% | 1030.5 hPa | 0 mm | - | 795 W/m² | - |
| 1777550176 | 17.22° C | 34% | 1030.8 hPa | 0 mm | - | 800 W/m² | - |
| 1777549576 | 17.22° C | 34% | 1030.8 hPa | 0 mm | - | 800 W/m² | - |
| 1777548976 | 16.67° C | 34% | 1030.8 hPa | 0 mm | - | 798 W/m² | - |
| 1777548376 | 16.11° C | 33% | 1030.9 hPa | 0 mm | - | 800 W/m² | - |
| 1777547776 | 16.11° C | 33% | 1030.9 hPa | 0 mm | - | 798 W/m² | - |
| 1777547176 | 16.11° C | 33% | 1031.2 hPa | 0 mm | - | 795 W/m² | - |
| 1777546576 | 16.11° C | 33% | 1031.3 hPa | 0 mm | - | 791 W/m² | - |
| 1777545976 | 15.56° C | 33% | 1031.3 hPa | 0 mm | - | 779 W/m² | - |
| 1777545376 | 15.56° C | 35% | 1031.4 hPa | 0 mm | - | 777 W/m² | - |
| 1777544776 | 15.56° C | 35% | 1031.4 hPa | 0 mm | - | 770 W/m² | - |
| 1777544175 | 15° C | 35% | 1031.4 hPa | 0 mm | - | 759 W/m² | - |
| 1777543576 | 15° C | 35% | 1031.7 hPa | 0 mm | - | 744 W/m² | - |
| 1777542975 | 14.44° C | 36% | 1031.8 hPa | 0 mm | - | 737 W/m² | - |
| 1777542375 | 14.44° C | 36% | 1031.8 hPa | 0 mm | - | 724 W/m² | - |
| 1777541776 | 14.44° C | 36% | 1031.9 hPa | 0 mm | - | 714 W/m² | - |
| 1777541176 | 14.44° C | 36% | 1031.9 hPa | 0 mm | - | 696 W/m² | - |
| 1777540575 | 13.89° C | 38% | 1031.9 hPa | 0 mm | - | 679 W/m² | - |
| 1777539975 | 13.89° C | 37% | 1031.9 hPa | 0 mm | - | 661 W/m² | - |
| 1777539377 | 13.89° C | 37% | 1031.9 hPa | 0 mm | - | 643 W/m² | - |
| 1777538777 | 13.89° C | 39% | 1031.9 hPa | 0 mm | - | 624 W/m² | - |
| 1777538177 | 13.89° C | 40% | 1031.9 hPa | 0 mm | - | 605 W/m² | - |
| 1777537577 | 13.33° C | 42% | 1032.2 hPa | 0 mm | - | 578 W/m² | - |
| 1777536977 | 12.78° C | 38% | 1032.2 hPa | 0 mm | - | 561 W/m² | - |
| 1777536377 | 12.78° C | 39% | 1032.2 hPa | 0 mm | - | 536 W/m² | - |
* Rain latest hour (hover to see other rain measurements)
** Current wind speed in m/s (hover to see current wind gust speed)